QPF
0.07 0.07 0.07 0.07 0.07 0.09 0.10 0.14 0.15 0.11 0.10 0.09 0.07 0.06 0.07 0.10 0.13 0.14 0.12 0.10 0.09 0.07 0.06 0.05 0.05 0.05 0.05 0.04 0.04 0.03 0.03 0.02 0.02 0.02 0.02 0.02 0.02 0.02 0.02 0.02 0.02 0.03 0.03
0.07 0.07 0.09 0.12 0.14 0.15 0.14 0.14 0.13 0.11 0.09 0.08 0.08 0.09 0.09 0.09 0.09 0.09 0.10 0.09 0.08 0.08 0.07 0.08 0.07 0.05 0.04 0.03 0.03 0.03 0.02 0.02 0.02 0.02 0.02 0.01 0.01 0.01 0.01 0.02 0.02 0.03 0.05
0.05 0.06 0.11 0.21 0.21 0.19 0.19 0.16 0.11 0.10 0.12 0.12 0.11 0.11 0.10 0.09 0.09 0.09 0.08 0.07 0.07 0.08 0.09 0.08 0.08 0.06 0.05 0.05 0.04 0.04 0.03 0.03 0.03 0.02 0.02 0.01 0.01 0.01 0.01 0.02 0.03 0.03 0.04
0.09 0.12 0.15 0.15 0.15 0.16 0.13 0.08 0.08 0.09 0.14 0.17 0.14 0.10 0.09 0.07 0.06 0.09 0.10 0.09 0.09 0.09 0.09 0.09 0.09 0.07 0.07 0.07 0.05 0.04 0.04 0.04 0.04 0.03 0.02 0.02 0.01 0.02 0.03 0.03 0.04 0.05 0.05
0.10 0.11 0.09 0.09 0.12 0.13 0.09 0.06 0.06 0.07 0.09 0.10 0.12 0.12 0.08 0.08 0.10 0.11 0.11 0.11 0.11 0.11 0.08 0.08 0.11 0.12 0.09 0.06 0.05 0.04 0.04 0.04 0.04 0.03 0.02 0.02 0.02 0.03 0.03 0.03 0.04 0.04 0.03
0.09 0.07 0.07 0.07 0.08 0.13 0.09 0.06 0.04 0.05 0.07 0.08 0.06 0.09 0.11 0.09 0.08 0.10 0.10 0.09 0.11 0.15 0.12 0.10 0.09 0.08 0.07 0.05 0.05 0.05 0.04 0.03 0.04 0.05 0.04 0.02 0.02 0.02 0.02 0.02 0.02 0.01 0.01
0.09 0.05 0.06 0.08 0.10 0.10 0.07 0.06 0.05 0.05 0.05 0.05 0.07 0.09 0.10 0.08 0.06 0.07 0.09 0.08 0.07 0.07 0.07 0.09 0.09 0.08 0.08 0.08 0.08 0.07 0.06 0.05 0.05 0.05 0.05 0.04 0.03 0.03 0.03 0.02 0.02 0.02 0.01
0.06 0.05 0.05 0.13 0.16 0.09 0.06 0.05 0.05 0.05 0.05 0.06 0.07 0.08 0.08 0.07 0.07 0.08 0.07 0.07 0.05 0.05 0.05 0.07 0.08 0.10 0.11 0.09 0.08 0.06 0.05 0.06 0.06 0.06 0.06 0.06 0.04 0.04 0.03 0.03 0.03 0.03 0.02
0.05 0.06 0.07 0.08 0.08 0.05 0.04 0.04 0.05 0.05 0.05 0.05 0.05 0.06 0.06 0.07 0.09 0.08 0.07 0.07 0.07 0.08 0.09 0.09 0.09 0.10 0.11 0.10 0.08 0.07 0.06 0.05 0.05 0.04 0.03 0.03 0.03 0.04 0.04 0.04 0.04 0.04 0.03
0.09 0.09 0.07 0.06 0.05 0.06 0.06 0.07 0.07 0.05 0.04 0.04 0.04 0.04 0.05 0.06 0.08 0.10 0.07 0.07 0.10 0.10 0.10 0.08 0.08 0.09 0.08 0.09 0.08 0.07 0.06 0.05 0.04 0.04 0.04 0.03 0.02 0.03 0.03 0.03 0.03 0.03 0.03
0.07 0.07 0.09 0.09 0.07 0.06 0.06 0.05 0.04 0.04 0.03 0.03 0.03 0.02 0.03 0.05 0.07 0.08 0.07 0.06 0.07 0.06 0.06 0.06 0.06 0.06 0.05 0.05 0.06 0.06 0.06 0.05 0.04 0.04 0.03 0.02 0.02 0.03 0.03 0.03 0.02 0.03 0.03
0.07 0.05 0.06 0.12 0.19 0.13 0.07 0.06 0.04 0.03 0.02 0.03 0.02 0.02 0.02 0.03 0.04 0.07 0.06 0.04 0.04 0.05 0.05 0.04 0.04 0.04 0.05 0.05 0.05 0.05 0.05 0.06 0.05 0.04 0.04 0.03 0.02 0.02 0.03 0.03 0.03 0.03 0.03
0.08 0.07 0.07 0.08 0.15 0.13 0.06 0.05 0.03 0.03 0.03 0.03 0.02 0.02 0.02 0.02 0.03 0.05 0.05 0.03 0.02 0.02 0.03 0.04 0.05 0.06 0.06 0.04 0.03 0.03 0.04 0.05 0.05 0.05 0.04 0.03 0.02 0.02 0.02 0.02 0.02 0.02 0.02
0.06 0.06 0.07 0.07 0.06 0.05 0.05 0.04 0.03 0.03 0.03 0.03 0.03 0.02 0.02 0.02 0.02 0.03 0.05 0.04 0.03 0.03 0.03 0.05 0.06 0.05 0.04 0.03 0.03 0.03 0.03 0.05 0.05 0.03 0.03 0.03 0.03 0.02 0.02 0.02 0.02 0.02 0.02
0.05 0.05 0.06 0.06 0.04 0.03 0.04 0.04 0.03 0.03 0.03 0.02 0.02 0.02 0.02 0.02 0.02 0.02 0.04 0.05 0.04 0.05 0.05 0.05 0.06 0.05 0.05 0.03 0.02 0.02 0.03 0.04 0.04 0.04 0.03 0.03 0.02 0.02 0.02 0.01 0.01 0.02 0.02
0.04 0.04 0.03 0.04 0.04 0.04 0.04 0.03 0.02 0.02 0.01 0.01 0.02 0.02 0.02 0.02 0.02 0.03 0.04 0.05 0.05 0.05 0.05 0.06 0.06 0.05 0.04 0.03 0.02 0.02 0.02 0.03 0.03 0.04 0.04 0.04 0.03 0.02 0.02 0.02 0.03 0.03 0.02
0.04 0.04 0.03 0.04 0.03 0.03 0.02 0.01 0.01 0.01 0.01 0.01 0.02 0.02 0.02 0.02 0.02 0.03 0.03 0.03 0.04 0.04 0.05 0.07 0.05 0.04 0.03 0.03 0.02 0.02 0.02 0.02 0.03 0.04 0.04 0.04 0.04 0.03 0.03 0.03 0.03 0.03 0.03
0.04 0.04 0.04 0.04 0.04 0.02 0.01 0.01 0.01 0.01 0.01 0.02 0.02 0.02 0.02 0.02 0.02 0.03 0.02 0.02 0.02 0.04 0.05 0.07 0.05 0.04 0.03 0.02 0.02 0.03 0.03 0.03 0.03 0.04 0.05 0.05 0.05 0.05 0.05 0.04 0.03 0.03 0.03
0.04 0.04 0.04 0.04 0.03 0.02 0.02 0.02 0.02 0.02 0.01 0.01 0.01 0.01 0.01 0.01 0.02 0.02 0.02 0.02 0.03 0.04 0.05 0.06 0.05 0.04 0.03 0.02 0.02 0.03 0.04 0.04 0.03 0.03 0.04 0.06 0.07 0.06 0.06 0.04 0.03 0.02 0.02
0.04 0.04 0.03 0.03 0.03 0.02 0.02 0.02 0.02 0.01 0.01 0.01 0.01 0.01 0.01 0.01 0.02 0.03 0.02 0.03 0.04 0.04 0.05 0.06 0.05 0.04 0.02 0.02 0.02 0.02 0.02 0.02 0.03 0.03 0.03 0.05 0.06 0.06 0.06 0.04 0.03 0.02 0.02
0.03 0.02 0.02 0.03 0.02 0.02 0.02 0.02 0.02 0.01 0.01 0.01 0.01 0.01 0.02 0.02 0.03 0.03 0.04 0.04 0.04 0.04 0.06 0.05 0.04 0.04 0.03 0.03 0.03 0.02 0.02 0.02 0.02 0.03 0.04 0.05 0.07 0.06 0.05 0.04 0.03 0.02 0.01
0.03 0.02 0.02 0.03 0.03 0.03 0.03 0.03 0.02 0.02 0.01 0.01 0.01 0.01 0.02 0.03 0.03 0.04 0.05 0.05 0.04 0.06 0.05 0.03 0.04 0.04 0.03 0.03 0.03 0.03 0.02 0.03 0.03 0.03 0.04 0.04 0.06 0.05 0.05 0.03 0.02 0.02 0.02
0.06 0.05 0.04 0.03 0.04 0.04 0.04 0.03 0.03 0.03 0.02 0.02 0.02 0.02 0.03 0.05 0.08 0.09 0.07 0.06 0.06 0.05 0.03 0.04 0.04 0.03 0.03 0.03 0.02 0.02 0.03 0.04 0.04 0.04 0.04 0.05 0.06 0.05 0.04 0.04 0.03 0.03 0.02
0.07 0.06 0.05 0.05 0.05 0.06 0.04 0.03 0.02 0.02 0.02 0.02 0.01 0.02 0.03 0.06 0.08 0.07 0.06 0.05 0.03 0.03 0.03 0.04 0.04 0.03 0.03 0.03 0.02 0.02 0.03 0.04 0.04 0.04 0.04 0.06 0.06 0.05 0.05 0.05 0.05 0.04 0.02
0.06 0.04 0.05 0.04 0.03 0.03 0.02 0.02 0.02 0.01 0.01 0.01 0.02 0.02 0.03 0.05 0.04 0.03 0.05 0.05 0.04 0.04 0.04 0.05 0.04 0.03 0.02 0.01 0.01 0.02 0.03 0.05 0.05 0.04 0.04 0.05 0.05 0.04 0.04 0.03 0.03 0.04 0.03
0.03 0.03 0.02 0.02 0.02 0.01 0.01 0.01 0.01 0.01 0.01 0.01 0.02 0.03 0.02 0.02 0.01 0.01 0.04 0.05 0.04 0.04 0.04 0.04 0.02 0.02 0.01 0.01 0.01 0.02 0.03 0.03 0.03 0.03 0.03 0.03 0.04 0.04 0.04 0.04 0.03 0.03 0.03
MSLP
1005.12 1005.32 1005.52 1005.70 1005.88 1006.06 1006.28 1006.54 1006.88 1007.27 1007.72 1008.21 1008.70 1009.18 1009.60 1009.97 1010.27 1010.51 1010.71 1010.88 1011.06 1011.25 1011.46 1011.70 1011.95 1012.20 1012.44 1012.64 1012.82 1012.94 1013.04 1013.10 1013.14 1013.16 1013.16 1013.13 1013.08 1013.00 1012.90 1012.77 1012.63 1012.50 1012.39
1005.08 1005.31 1005.53 1005.72 1005.90 1006.09 1006.32 1006.62 1007.01 1007.48 1008.02 1008.59 1009.15 1009.67 1010.10 1010.43 1010.67 1010.82 1010.94 1011.04 1011.15 1011.31 1011.51 1011.74 1011.99 1012.24 1012.46 1012.64 1012.78 1012.88 1012.95 1013.01 1013.07 1013.14 1013.21 1013.28 1013.31 1013.31 1013.25 1013.14 1013.00 1012.82 1012.66
1005.04 1005.28 1005.51 1005.70 1005.88 1006.07 1006.32 1006.66 1007.10 1007.64 1008.26 1008.91 1009.53 1010.08 1010.52 1010.82 1011.01 1011.10 1011.14 1011.18 1011.24 1011.36 1011.54 1011.77 1012.01 1012.25 1012.45 1012.60 1012.71 1012.79 1012.85 1012.93 1013.02 1013.16 1013.31 1013.46 1013.59 1013.67 1013.66 1013.58 1013.43 1013.23 1013.00
1005.03 1005.26 1005.46 1005.64 1005.80 1006.00 1006.26 1006.62 1007.10 1007.70 1008.38 1009.08 1009.75 1010.33 1010.78 1011.08 1011.23 1011.28 1011.28 1011.28 1011.31 1011.41 1011.57 1011.78 1012.02 1012.24 1012.42 1012.56 1012.65 1012.72 1012.78 1012.88 1013.02 1013.21 1013.44 1013.67 1013.88 1014.02 1014.07 1014.01 1013.85 1013.62 1013.34
1005.08 1005.26 1005.43 1005.58 1005.74 1005.92 1006.18 1006.54 1007.05 1007.67 1008.37 1009.10 1009.80 1010.40 1010.86 1011.17 1011.32 1011.37 1011.36 1011.34 1011.36 1011.45 1011.60 1011.80 1012.02 1012.22 1012.40 1012.52 1012.60 1012.67 1012.75 1012.87 1013.05 1013.29 1013.57 1013.86 1014.11 1014.29 1014.36 1014.32 1014.16 1013.90 1013.57
1005.22 1005.35 1005.49 1005.62 1005.74 1005.91 1006.15 1006.50 1006.99 1007.60 1008.30 1009.03 1009.73 1010.34 1010.80 1011.12 1011.30 1011.36 1011.37 1011.36 1011.40 1011.48 1011.63 1011.82 1012.03 1012.23 1012.38 1012.50 1012.58 1012.66 1012.75 1012.89 1013.09 1013.35 1013.65 1013.96 1014.22 1014.41 1014.49 1014.44 1014.26 1013.98 1013.63
1005.46 1005.56 1005.67 1005.79 1005.90 1006.05 1006.27 1006.58 1007.03 1007.59 1008.24 1008.94 1009.61 1010.20 1010.68 1011.01 1011.21 1011.31 1011.35 1011.38 1011.43 1011.53 1011.68 1011.86 1012.06 1012.24 1012.39 1012.50 1012.59 1012.67 1012.77 1012.91 1013.11 1013.36 1013.64 1013.92 1014.16 1014.32 1014.38 1014.30 1014.11 1013.82 1013.45
1005.78 1005.88 1006.00 1006.13 1006.26 1006.40 1006.60 1006.87 1007.25 1007.74 1008.31 1008.93 1009.54 1010.10 1010.56 1010.90 1011.12 1011.26 1011.34 1011.41 1011.48 1011.59 1011.74 1011.91 1012.09 1012.26 1012.40 1012.50 1012.58 1012.66 1012.76 1012.88 1013.06 1013.26 1013.50 1013.72 1013.90 1014.00 1014.00 1013.90 1013.70 1013.40 1013.04
1006.15 1006.29 1006.47 1006.64 1006.81 1006.97 1007.15 1007.38 1007.69 1008.08 1008.55 1009.07 1009.60 1010.09 1010.52 1010.85 1011.09 1011.26 1011.37 1011.46 1011.56 1011.67 1011.80 1011.96 1012.12 1012.26 1012.38 1012.47 1012.54 1012.61 1012.68 1012.78 1012.90 1013.04 1013.19 1013.32 1013.42 1013.44 1013.39 1013.26 1013.04 1012.76 1012.43
1006.51 1006.73 1007.00 1007.26 1007.49 1007.69 1007.87 1008.08 1008.32 1008.62 1008.98 1009.39 1009.81 1010.22 1010.59 1010.90 1011.13 1011.31 1011.44 1011.54 1011.64 1011.74 1011.86 1011.98 1012.10 1012.21 1012.30 1012.36 1012.42 1012.45 1012.50 1012.54 1012.60 1012.66 1012.72 1012.75 1012.74 1012.70 1012.59 1012.42 1012.20 1011.94 1011.65
1006.80 1007.14 1007.52 1007.88 1008.20 1008.46 1008.68 1008.86 1009.06 1009.28 1009.54 1009.83 1010.15 1010.47 1010.77 1011.03 1011.24 1011.41 1011.53 1011.63 1011.71 1011.79 1011.87 1011.95 1012.02 1012.08 1012.13 1012.16 1012.18 1012.19 1012.18 1012.18 1012.16 1012.14 1012.10 1012.03 1011.94 1011.80 1011.65 1011.46 1011.24 1011.02 1010.77
1007.00 1007.44 1007.94 1008.42 1008.83 1009.17 1009.42 1009.62 1009.79 1009.95 1010.13 1010.33 1010.55 1010.78 1011.00 1011.21 1011.38 1011.52 1011.63 1011.70 1011.76 1011.79 1011.82 1011.85 1011.86 1011.87 1011.87 1011.86 1011.83 1011.80 1011.75 1011.68 1011.60 1011.49 1011.36 1011.21 1011.04 1010.84 1010.64 1010.44 1010.24 1010.04 1009.83
1007.07 1007.61 1008.20 1008.78 1009.28 1009.70 1010.00 1010.23 1010.39 1010.52 1010.65 1010.78 1010.92 1011.08 1011.24 1011.39 1011.52 1011.62 1011.69 1011.73 1011.74 1011.73 1011.70 1011.67 1011.62 1011.57 1011.51 1011.45 1011.38 1011.30 1011.20 1011.08 1010.93 1010.76 1010.56 1010.34 1010.11 1009.87 1009.64 1009.42 1009.22 1009.04 1008.87
1007.05 1007.64 1008.30 1008.94 1009.51 1009.99 1010.36 1010.62 1010.80 1010.93 1011.03 1011.12 1011.22 1011.32 1011.42 1011.52 1011.60 1011.66 1011.69 1011.69 1011.66 1011.59 1011.51 1011.41 1011.30 1011.18 1011.07 1010.95 1010.84 1010.71 1010.56 1010.40 1010.20 1009.98 1009.73 1009.46 1009.19 1008.92 1008.66 1008.44 1008.24 1008.06 1007.90
1006.98 1007.58 1008.24 1008.91 1009.52 1010.05 1010.47 1010.78 1011.00 1011.14 1011.25 1011.33 1011.40 1011.46 1011.52 1011.58 1011.61 1011.63 1011.62 1011.57 1011.49 1011.37 1011.23 1011.08 1010.91 1010.74 1010.56 1010.40 1010.23 1010.06 1009.88 1009.67 1009.44 1009.18 1008.90 1008.60 1008.29 1008.00 1007.73 1007.49 1007.28 1007.10 1006.93
1006.91 1007.47 1008.12 1008.77 1009.39 1009.94 1010.40 1010.76 1011.02 1011.20 1011.32 1011.40 1011.46 1011.50 1011.53 1011.54 1011.54 1011.52 1011.46 1011.36 1011.24 1011.08 1010.89 1010.68 1010.46 1010.24 1010.02 1009.81 1009.60 1009.39 1009.17 1008.93 1008.67 1008.39 1008.08 1007.76 1007.44 1007.13 1006.84 1006.59 1006.36 1006.16 1005.97
1006.92 1007.41 1007.99 1008.61 1009.22 1009.78 1010.26 1010.65 1010.95 1011.17 1011.32 1011.41 1011.46 1011.48 1011.48 1011.45 1011.40 1011.33 1011.22 1011.09 1010.92 1010.72 1010.50 1010.25 1009.99 1009.73 1009.47 1009.22 1008.97 1008.72 1008.47 1008.21 1007.93 1007.62 1007.31 1006.98 1006.64 1006.32 1006.02 1005.74 1005.49 1005.26 1005.03
1007.05 1007.46 1007.97 1008.53 1009.11 1009.66 1010.15 1010.57 1010.90 1011.14 1011.30 1011.40 1011.43 1011.42 1011.38 1011.30 1011.20 1011.08 1010.93 1010.76 1010.55 1010.32 1010.07 1009.79 1009.51 1009.22 1008.93 1008.64 1008.37 1008.09 1007.82 1007.53 1007.23 1006.92 1006.59 1006.25 1005.91 1005.58 1005.26 1004.97 1004.69 1004.42 1004.16
1007.33 1007.66 1008.10 1008.61 1009.15 1009.68 1010.17 1010.59 1010.92 1011.17 1011.33 1011.41 1011.41 1011.36 1011.26 1011.13 1010.98 1010.80 1010.60 1010.39 1010.16 1009.90 1009.63 1009.34 1009.05 1008.74 1008.44 1008.14 1007.84 1007.54 1007.24 1006.94 1006.62 1006.30 1005.97 1005.63 1005.28 1004.94 1004.61 1004.30 1003.99 1003.70 1003.40
1007.75 1008.03 1008.42 1008.88 1009.38 1009.88 1010.34 1010.75 1011.06 1011.29 1011.42 1011.46 1011.41 1011.30 1011.14 1010.94 1010.72 1010.50 1010.26 1010.01 1009.76 1009.50 1009.23 1008.94 1008.65 1008.35 1008.04 1007.73 1007.42 1007.10 1006.79 1006.48 1006.15 1005.82 1005.48 1005.14 1004.80 1004.45 1004.11 1003.78 1003.45 1003.12 1002.80
1008.30 1008.54 1008.89 1009.32 1009.78 1010.24 1010.66 1011.03 1011.30 1011.48 1011.55 1011.52 1011.41 1011.23 1011.00 1010.74 1010.46 1010.19 1009.92 1009.66 1009.40 1009.15 1008.90 1008.63 1008.36 1008.07 1007.77 1007.47 1007.16 1006.84 1006.52 1006.19 1005.86 1005.53 1005.18 1004.84 1004.49 1004.14 1003.80 1003.45 1003.10 1002.75 1002.39
1008.92 1009.16 1009.48 1009.87 1010.28 1010.69 1011.06 1011.36 1011.57 1011.67 1011.67 1011.57 1011.38 1011.13 1010.83 1010.52 1010.20 1009.90 1009.62 1009.36 1009.12 1008.90 1008.67 1008.45 1008.21 1007.95 1007.68 1007.39 1007.09 1006.78 1006.46 1006.13 1005.80 1005.46 1005.11 1004.76 1004.41 1004.06 1003.70 1003.34 1002.97 1002.60 1002.21
1009.56 1009.80 1010.11 1010.46 1010.82 1011.16 1011.45 1011.66 1011.78 1011.80 1011.71 1011.54 1011.28 1010.97 1010.63 1010.28 1009.95 1009.65 1009.38 1009.15 1008.95 1008.77 1008.59 1008.42 1008.22 1008.02 1007.78 1007.52 1007.24 1006.94 1006.62 1006.30 1005.96 1005.62 1005.28 1004.93 1004.57 1004.21 1003.84 1003.46 1003.07 1002.67 1002.24
1010.19 1010.43 1010.71 1011.01 1011.30 1011.55 1011.74 1011.86 1011.88 1011.80 1011.64 1011.39 1011.08 1010.74 1010.38 1010.04 1009.72 1009.45 1009.23 1009.05 1008.91 1008.79 1008.68 1008.56 1008.42 1008.26 1008.07 1007.84 1007.59 1007.31 1007.01 1006.69 1006.36 1006.03 1005.68 1005.32 1004.96 1004.59 1004.20 1003.80 1003.38 1002.93 1002.46
1010.74 1010.97 1011.21 1011.44 1011.64 1011.79 1011.88 1011.88 1011.80 1011.65 1011.42 1011.13 1010.80 1010.46 1010.13 1009.82 1009.56 1009.35 1009.19 1009.08 1009.01 1008.96 1008.92 1008.86 1008.79 1008.68 1008.52 1008.34 1008.11 1007.86 1007.58 1007.28 1006.96 1006.62 1006.28 1005.91 1005.54 1005.14 1004.73 1004.30 1003.84 1003.35 1002.84
1011.20 1011.39 1011.57 1011.72 1011.82 1011.86 1011.83 1011.73 1011.57 1011.35 1011.08 1010.78 1010.47 1010.17 1009.89 1009.66 1009.48 1009.35 1009.28 1009.25 1009.26 1009.28 1009.30 1009.30 1009.27 1009.21 1009.10 1008.94 1008.75 1008.52 1008.27 1007.98 1007.68 1007.35 1007.00 1006.63 1006.24 1005.82 1005.38 1004.91 1004.41 1003.88 1003.30
Thickness
5745 5745 5745 5744 5742 5738 5736 5733 5731 5728 5726 5722 5719 5715 5712 5711 5710 5708 5706 5704 5700 5697 5695 5693 5691 5689 5686 5684 5682 5679 5676 5674 5673 5669 5668 5669 5669 5668 5667 5666 5665 5664 5663
5736 5737 5737 5737 5735 5732 5728 5728 5726 5722 5720 5717 5714 5711 5708 5705 5703 5702 5700 5697 5694 5691 5689 5687 5685 5683 5680 5678 5676 5673 5669 5667 5666 5661 5656 5654 5656 5659 5661 5659 5657 5656 5656
5730 5731 5730 5729 5728 5726 5724 5723 5720 5717 5715 5712 5708 5705 5701 5698 5695 5693 5692 5690 5688 5686 5683 5681 5679 5677 5674 5671 5670 5667 5663 5659 5658 5656 5651 5645 5642 5645 5649 5650 5650 5648 5647
5726 5724 5723 5723 5722 5722 5721 5718 5715 5713 5710 5707 5702 5698 5693 5689 5688 5686 5684 5683 5682 5680 5678 5676 5673 5670 5667 5665 5664 5662 5659 5655 5651 5649 5647 5644 5641 5636 5636 5639 5641 5640 5640
5722 5720 5720 5720 5720 5718 5715 5712 5708 5706 5704 5701 5697 5693 5688 5685 5682 5679 5677 5676 5676 5674 5672 5670 5667 5664 5662 5660 5658 5656 5653 5650 5646 5642 5640 5638 5635 5632 5628 5628 5630 5632 5633
5716 5715 5716 5716 5714 5712 5709 5705 5701 5699 5697 5694 5691 5687 5682 5679 5676 5673 5671 5669 5668 5667 5666 5664 5662 5660 5658 5656 5654 5651 5648 5645 5643 5639 5637 5633 5629 5626 5623 5621 5621 5623 5626
5709 5709 5709 5709 5708 5706 5703 5700 5696 5693 5691 5688 5684 5681 5678 5674 5671 5668 5664 5662 5660 5659 5659 5658 5656 5655 5653 5651 5649 5646 5643 5641 5638 5636 5633 5630 5627 5624 5620 5616 5615 5616 5618
5705 5705 5705 5705 5703 5701 5698 5694 5691 5688 5685 5681 5678 5675 5673 5669 5665 5663 5660 5657 5656 5655 5654 5653 5651 5650 5649 5647 5644 5641 5638 5636 5634 5632 5630 5626 5624 5621 5617 5614 5610 5609 5609
5701 5702 5702 5700 5699 5696 5693 5690 5687 5683 5679 5676 5673 5670 5667 5664 5661 5658 5655 5653 5652 5650 5649 5648 5646 5645 5644 5642 5639 5636 5634 5631 5629 5627 5625 5622 5620 5617 5615 5612 5608 5604 5602
5699 5697 5697 5696 5694 5692 5689 5685 5682 5678 5675 5672 5668 5666 5662 5660 5657 5653 5651 5649 5647 5646 5644 5642 5641 5639 5639 5637 5634 5631 5629 5627 5624 5622 5619 5617 5615 5613 5611 5608 5605 5602 5599
5694 5693 5693 5692 5691 5688 5684 5680 5676 5672 5669 5666 5663 5660 5657 5654 5652 5649 5646 5645 5643 5641 5639 5637 5635 5634 5633 5631 5628 5626 5624 5622 5620 5618 5615 5612 5610 5608 5606 5603 5600 5598 5595
5691 5691 5689 5688 5685 5681 5678 5674 5670 5667 5664 5661 5658 5655 5652 5649 5646 5644 5642 5640 5638 5636 5634 5632 5630 5629 5628 5626 5623 5620 5619 5616 5614 5612 5609 5607 5606 5603 5601 5598 5596 5594 5592
5686 5685 5684 5682 5679 5676 5672 5669 5666 5663 5660 5657 5653 5649 5646 5644 5642 5640 5638 5635 5633 5631 5630 5627 5625 5624 5622 5620 5618 5615 5613 5611 5608 5607 5604 5602 5600 5598 5596 5593 5591 5589 5589
5682 5681 5678 5676 5674 5672 5669 5665 5662 5659 5656 5653 5648 5644 5642 5640 5637 5635 5633 5631 5629 5627 5625 5623 5621 5620 5618 5616 5613 5610 5608 5605 5604 5602 5600 5597 5595 5593 5591 5589 5586 5584 5583
5677 5676 5673 5671 5670 5667 5665 5662 5659 5656 5653 5648 5644 5640 5638 5635 5633 5631 5630 5628 5626 5624 5622 5620 5618 5616 5614 5612 5608 5605 5603 5600 5599 5597 5595 5593 5592 5590 5587 5584 5581 5579 5577
5673 5672 5671 5668 5667 5665 5662 5659 5656 5653 5649 5644 5641 5638 5635 5632 5630 5628 5626 5625 5623 5621 5619 5617 5615 5612 5611 5608 5605 5601 5598 5596 5593 5591 5590 5589 5587 5585 5583 5581 5578 5576 5573
5671 5670 5669 5667 5665 5663 5661 5657 5654 5650 5646 5642 5638 5635 5633 5630 5627 5626 5624 5622 5620 5618 5616 5614 5612 5609 5607 5604 5601 5598 5594 5592 5589 5586 5584 5583 5582 5579 5577 5576 5574 5572 5571
5670 5669 5667 5665 5663 5661 5659 5656 5652 5648 5644 5640 5637 5634 5631 5628 5626 5623 5621 5619 5618 5616 5613 5611 5609 5606 5604 5601 5598 5595 5592 5588 5585 5582 5580 5577 5575 5574 5571 5570 5568 5566 5565
5668 5667 5666 5664 5661 5658 5656 5653 5649 5646 5642 5639 5636 5634 5632 5628 5625 5622 5620 5618 5616 5614 5612 5609 5605 5602 5600 5598 5595 5592 5587 5584 5581 5578 5575 5572 5569 5568 5565 5563 5560 5559 5558
5666 5665 5664 5662 5659 5657 5654 5650 5646 5643 5641 5639 5637 5635 5633 5629 5625 5622 5620 5618 5615 5612 5610 5607 5604 5600 5597 5595 5592 5588 5583 5579 5576 5573 5571 5568 5564 5561 5559 5555 5552 5550 5550
5664 5663 5662 5659 5657 5656 5652 5648 5645 5642 5642 5641 5638 5635 5632 5629 5626 5622 5620 5617 5614 5611 5608 5604 5601 5597 5594 5591 5588 5584 5578 5574 5570 5567 5564 5561 5558 5555 5553 5550 5546 5544 5543
5660 5660 5657 5656 5655 5654 5651 5647 5644 5644 5643 5640 5638 5635 5632 5630 5627 5622 5619 5616 5612 5608 5604 5600 5597 5594 5591 5587 5583 5579 5574 5570 5564 5560 5557 5554 5551 5549 5546 5544 5542 5540 5537
5656 5656 5655 5653 5652 5651 5649 5645 5644 5644 5642 5639 5636 5633 5632 5630 5626 5621 5617 5614 5610 5605 5601 5597 5592 5589 5586 5583 5578 5574 5569 5565 5559 5554 5551 5548 5545 5542 5540 5538 5536 5534 5530
5653 5653 5652 5650 5648 5648 5648 5646 5645 5643 5640 5637 5634 5632 5629 5627 5623 5620 5616 5611 5607 5603 5599 5594 5590 5585 5581 5577 5572 5567 5563 5558 5553 5549 5545 5542 5539 5535 5533 5531 5528 5526 5523
5650 5650 5648 5647 5647 5647 5646 5645 5644 5642 5638 5635 5632 5630 5627 5623 5619 5616 5612 5609 5606 5602 5597 5591 5586 5581 5576 5572 5567 5561 5556 5551 5546 5542 5538 5535 5531 5527 5524 5522 5520 5518 5516
5648 5648 5647 5646 5646 5645 5644 5644 5643 5641 5637 5634 5631 5627 5624 5621 5618 5613 5610 5608 5605 5601 5596 5591 5585 5579 5573 5568 5563 5557 5552 5546 5542 5536 5531 5526 5522 5519 5516 5513 5512 5510 5508